Theta_e
345 346 348 351 352 351 350 350 350 350 349 349 349 348 349 349 349 348 348 347 348 349 349 348 350 349 350 350 349 348 348 349 349 348 348 348 348 349 349 348 347 347 347 347 348 347 347 346 345 346 346 346 344 343 342 342 341 341 342 343 344 342 337 335 335 335 340 336 336 336 336 334 334 335 335 336 339 341 343 340 340 337 337 334 333
344 347 348 351 352 351 351 351 351 350 349 348 349 348 348 349 348 349 349 349 348 348 349 348 349 349 348 349 348 348 349 349 349 349 348 348 348 348 349 349 348 349 348 347 346 345 344 346 346 347 346 346 345 344 343 342 342 341 342 343 344 344 340 335 334 338 339 337 335 335 336 337 337 337 337 336 338 340 341 338 338 337 336 333 332
347 347 348 351 352 352 351 351 350 350 349 349 349 348 348 348 348 348 348 349 348 348 347 347 348 348 347 348 348 348 348 348 348 348 348 348 348 348 348 348 348 348 348 346 345 346 346 346 345 346 345 346 345 344 344 343 341 340 341 343 343 343 343 342 341 341 341 340 337 335 336 336 336 336 335 336 336 336 339 334 335 336 333 333 336
346 347 348 351 351 351 351 350 349 349 349 349 348 348 348 347 348 348 347 348 347 347 347 348 347 346 346 347 347 347 347 347 347 347 347 347 346 347 347 347 347 346 347 345 345 344 344 345 345 345 345 346 345 345 344 342 341 340 340 341 342 342 341 340 340 340 339 339 340 336 335 334 333 334 332 335 335 334 340 331 331 333 334 334 334
346 347 348 350 352 351 351 350 349 349 348 348 347 347 347 347 347 347 347 346 347 346 346 345 346 345 346 346 347 347 346 346 346 346 346 345 345 345 345 345 345 346 345 346 345 345 345 345 344 345 346 345 345 344 343 342 341 340 340 341 341 341 340 340 339 339 337 338 337 338 332 332 332 332 332 332 332 334 339 340 337 335 334 334 334
346 346 349 349 350 352 350 351 349 348 348 347 346 346 346 346 346 346 345 345 345 346 346 345 345 345 346 346 346 347 346 345 345 345 345 344 344 344 344 344 344 345 345 345 345 346 345 344 345 345 345 345 344 343 342 341 340 339 339 339 340 340 340 339 338 338 337 337 337 337 334 336 334 332 332 332 331 336 332 332 332 332 332 332 331
345 346 348 349 348 350 350 350 350 348 347 347 346 345 344 345 346 346 344 344 344 345 345 345 345 345 345 346 346 346 345 345 344 343 343 343 343 343 343 344 344 344 345 345 345 345 344 344 344 344 344 344 343 343 342 341 340 340 339 339 339 339 339 338 337 337 336 337 334 333 332 334 335 335 334 333 332 331 332 334 334 333 331 332 333
346 346 347 346 346 350 350 350 349 348 347 346 345 344 344 344 344 345 344 343 342 344 344 344 344 345 345 346 345 346 346 345 345 343 342 342 341 342 344 345 344 344 345 345 345 344 344 344 343 343 344 344 343 343 341 340 340 340 339 338 338 338 338 337 336 336 335 329 331 333 333 333 334 333 333 339 337 334 336 336 336 335 332 331 332
344 346 346 345 346 347 348 349 349 346 347 346 344 344 343 342 341 342 343 343 342 341 343 343 344 344 345 345 344 346 346 345 345 343 342 342 344 342 344 345 345 344 345 344 344 343 344 344 344 343 343 343 342 342 340 339 339 338 339 339 338 338 337 336 336 335 332 326 326 330 333 332 333 334 335 335 338 339 338 336 336 333 333 332 332
345 346 345 345 347 347 347 348 347 347 346 346 345 344 343 342 341 340 340 342 342 343 343 345 344 345 345 344 345 346 346 346 345 344 345 346 346 344 344 344 345 345 344 344 343 343 344 344 344 343 342 341 341 340 340 339 338 338 337 337 336 337 337 335 334 337 328 329 328 329 334 338 332 333 334 333 334 335 335 334 334 333 332 331 329
344 345 346 345 349 344 346 348 347 345 345 346 345 344 343 342 341 339 339 339 341 343 342 345 345 345 345 345 346 346 345 345 346 346 345 345 346 345 344 344 344 344 344 342 342 342 342 341 343 342 342 342 341 340 340 339 339 338 337 337 336 335 336 336 335 330 331 330 330 331 331 333 334 334 333 332 333 333 333 333 332 330 329 330 328
343 344 346 346 348 342 345 347 347 346 346 345 345 344 344 344 342 340 339 338 339 340 342 343 344 345 345 345 345 345 345 345 344 345 345 344 346 345 344 344 344 344 342 342 342 342 342 342 342 342 341 341 340 340 340 340 338 338 338 338 338 337 335 336 332 332 332 332 332 332 332 331 331 332 332 331 331 330 329 329 331 331 330 328 330
342 344 346 347 347 341 342 343 345 346 346 345 345 347 346 344 342 340 339 338 336 339 340 342 345 344 345 345 345 345 345 345 346 343 345 344 343 344 342 344 343 344 343 342 342 342 342 342 342 341 341 340 340 340 340 338 337 337 338 338 338 338 338 336 333 332 332 334 333 334 333 334 334 334 333 331 331 330 330 330 329 327 328 329 328
342 344 345 346 346 346 340 341 341 342 344 345 346 347 345 343 343 341 339 339 338 338 339 341 344 345 345 344 345 345 343 343 344 344 344 344 342 343 343 342 342 343 343 343 343 342 342 342 341 341 340 340 340 340 338 337 336 336 337 337 336 337 337 337 337 332 334 334 335 333 334 334 334 335 337 332 333 334 335 334 334 334 332 331 331
341 343 345 346 346 347 344 339 340 341 342 343 345 346 345 344 344 341 337 337 337 337 338 339 344 343 344 344 343 344 342 344 342 344 343 342 342 342 342 342 341 342 343 342 342 342 341 341 341 341 341 340 340 339 338 335 335 335 335 334 333 333 333 336 335 333 334 334 335 334 334 334 335 336 337 336 336 334 335 335 336 336 334 334 333
343 343 345 345 346 346 346 345 338 338 338 339 341 343 344 343 345 343 340 342 340 338 338 338 341 343 343 344 343 343 344 343 343 342 341 342 342 341 341 342 341 342 342 341 341 340 340 339 339 338 338 339 339 339 338 335 334 333 333 333 331 330 329 331 336 334 334 335 335 335 334 333 336 335 338 337 337 336 335 334 335 335 336 335 334
341 343 343 344 346 345 345 344 342 336 337 337 338 340 342 344 343 342 345 343 341 341 341 342 343 342 342 344 343 342 343 342 342 342 339 341 339 340 341 340 340 342 342 341 340 339 338 337 337 336 335 337 339 339 337 335 333 332 331 331 330 328 328 328 336 335 334 337 338 334 334 334 336 337 337 337 336 336 336 334 333 334 334 335 335
342 341 342 343 344 343 343 344 344 343 344 341 337 337 339 341 340 341 343 343 342 342 342 343 341 340 341 341 340 342 340 342 340 338 339 339 337 337 338 340 342 342 341 340 339 338 336 335 335 334 334 333 339 338 335 333 332 331 329 328 327 326 327 326 336 335 336 337 336 337 334 335 337 338 337 336 336 336 335 335 335 334 332 334 333
342 343 343 342 342 343 343 344 343 342 342 341 343 346 335 337 338 340 341 340 341 340 339 339 339 338 339 339 341 338 338 340 339 338 338 337 338 336 337 340 341 341 341 340 338 337 336 335 335 334 333 334 339 337 335 332 330 328 327 325 324 324 322 329 335 335 335 335 335 335 335 335 337 338 336 334 335 335 335 333 333 335 335 333 332
341 341 340 342 343 342 343 343 342 342 341 341 341 343 337 335 336 337 337 337 337 336 334 335 335 335 333 335 337 338 337 340 336 339 336 336 337 335 335 338 342 341 340 340 339 337 337 336 335 334 334 336 338 336 334 331 330 327 325 322 321 320 331 332 333 334 333 332 334 334 333 332 335 336 335 334 333 334 334 333 333 333 332 333 334
338 339 340 341 341 342 342 341 342 341 342 341 341 342 345 335 336 334 333 334 335 334 331 330 328 328 332 332 334 341 343 340 339 341 335 342 330 329 333 336 339 341 341 340 339 338 337 336 335 334 335 334 337 335 333 330 327 325 322 321 319 331 331 332 332 331 331 331 331 332 331 330 332 333 335 335 333 333 334 334 332 333 333 332 331
335 337 339 339 340 342 342 341 342 342 341 341 342 342 344 340 343 343 344 341 336 333 339 345 340 342 330 337 340 340 342 341 341 341 343 342 337 329 331 334 335 337 340 341 340 339 338 336 335 335 334 337 334 337 333 327 324 323 320 317 331 331 331 331 331 330 330 330 330 330 329 330 330 331 332 334 334 334 333 332 332 333 334 333 333
320 327 335 338 339 340 341 341 341 341 340 340 341 342 341 341 343 342 342 338 341 342 343 342 343 343 342 343 339 341 340 342 344 343 344 332 340 327 330 332 333 334 338 339 338 339 339 337 336 336 336 334 337 336 335 334 331 321 320 329 331 331 331 330 330 329 329 330 330 330 328 330 331 332 332 333 334 334 333 333 334 334 333 334 334
316 319 320 321 321 329 340 340 341 342 340 339 339 338 338 340 340 341 341 340 342 341 341 341 339 339 342 341 340 339 337 339 335 335 337 342 339 326 327 329 330 331 333 338 335 336 336 336 336 336 336 335 334 333 333 333 332 332 331 330 330 330 330 330 328 328 328 329 328 330 329 330 331 332 333 333 333 334 333 333 333 332 332 332 332
313 316 317 317 317 321 323 337 341 341 342 338 337 337 339 338 338 340 340 339 340 341 342 341 341 341 340 340 341 338 339 339 339 339 339 341 341 340 340 340 340 340 332 340 339 340 338 338 337 335 335 335 334 332 332 331 331 331 331 331 330 331 330 330 329 328 329 329 329 328 328 329 331 331 332 333 334 333 332 333 333 332 332 332 332
312 310 311 313 315 317 319 320 329 340 341 340 338 337 338 337 338 339 338 339 340 340 340 341 339 340 342 340 339 339 339 338 338 338 339 340 340 339 339 340 341 341 339 339 338 338 335 336 335 334 333 333 333 331 330 329 329 332 331 330 330 330 329 327 328 328 329 328 328 327 325 327 328 330 332 332 332 332 332 332 332 332 332 333 333
307 306 309 310 313 313 317 318 322 326 336 341 338 339 337 337 337 339 338 337 338 338 339 340 340 342 342 341 339 338 337 337 339 338 338 338 337 337 337 337 338 339 339 337 335 336 336 334 334 334 334 333 333 333 331 329 328 327 330 331 330 329 328 326 326 327 328 328 327 325 325 326 327 330 331 332 332 333 332 332 333 332 332 332 332
304 304 305 307 308 310 313 316 318 322 326 335 339 339 339 337 336 337 338 335 337 338 338 340 340 339 340 340 338 339 338 337 336 336 337 336 336 337 337 337 336 336 336 335 334 334 333 333 334 334 332 332 331 332 331 331 329 329 328 328 328 328 327 327 326 327 328 328 328 325 324 326 326 328 330 332 333 333 333 333 333 333 332 331 332
301 302 304 305 307 308 310 312 315 319 324 329 337 340 339 338 338 337 335 334 337 337 338 338 338 339 339 339 339 337 337 336 336 337 339 335 337 335 335 335 335 333 333 333 334 332 331 331 331 332 332 331 330 330 329 330 331 328 327 326 325 325 325 325 326 327 328 328 328 326 323 324 325 326 329 331 333 333 333 333 333 333 333 333 332
300 300 302 303 305 307 308 310 312 316 322 328 336 338 338 339 338 337 336 335 336 337 338 337 338 338 337 338 337 336 336 336 335 335 336 337 335 333 332 332 332 332 332 333 333 331 329 329 330 330 329 329 328 328 328 327 327 327 326 325 325 325 325 324 325 326 327 327 328 327 322 322 323 324 326 328 331 333 334 334 332 332 333 333 332
300 298 300 303 304 305 306 309 312 316 320 324 326 334 335 336 339 339 337 336 335 336 337 337 337 337 336 336 336 336 335 335 334 334 334 335 336 332 332 333 332 333 333 333 333 332 330 329 329 329 329 329 328 329 328 327 327 327 328 328 327 326 325 325 326 326 326 327 327 327 328 322 321 323 325 327 330 332 333 334 332 331 332 332 332
298 298 299 301 302 304 306 309 312 315 320 321 325 329 335 336 339 338 338 337 337 335 334 335 333 334 335 335 335 334 334 334 334 333 333 334 334 333 334 332 332 333 333 333 332 332 332 331 332 332 331 330 329 329 329 328 327 327 328 327 328 327 326 326 326 326 326 327 327 327 327 327 322 322 323 325 327 329 331 333 333 332 332 332 332
297 298 298 299 301 302 304 306 311 316 317 318 319 322 325 327 323 320 320 322 325 327 324 323 324 327 328 328 330 332 332 332 331 331 330 331 333 332 330 331 332 332 332 332 332 332 332 331 331 332 331 330 329 329 329 328 327 327 328 328 328 327 328 328 327 327 327 328 328 327 328 328 328 323 321 322 323 326 328 331 332 333 333 332 332
297 298 299 299 300 302 303 305 309 313 313 314 314 315 316 317 317 317 316 316 316 316 315 315 316 317 319 318 320 320 324 329 330 330 330 331 330 330 330 330 330 329 330 331 330 331 330 330 330 329 326 328 327 328 327 327 327 327 327 328 328 327 328 328 327 328 328 328 328 328 328 328 328 328 329 322 320 322 325 328 330 332 333 333 333
295 296 297 298 298 300 302 303 306 311 311 311 311 311 312 313 312 312 312 312 312 312 312 312 312 313 314 314 315 316 317 319 324 327 329 329 328 329 328 329 329 330 330 331 330 331 330 329 328 327 327 327 328 327 327 327 327 326 327 328 327 328 328 328 328 329 328 329 329 329 329 328 328 329 329 329 324 322 323 325 328 330 331 332 332
294 294 295 298 298 299 300 302 305 309 310 309 310 310 309 309 310 310 310 309 309 308 308 309 309 310 311 312 312 313 315 316 318 323 326 328 328 329 329 328 328 329 330 330 330 329 329 328 328 327 324 324 325 325 327 326 326 326 327 327 327 327 327 327 327 328 328 328 328 328 329 329 329 328 324 328 327 327 324 325 326 328 328 329 330
293 293 294 295 297 298 298 300 302 306 309 309 308 308 307 307 307 306 306 306 305 305 306 306 306 306 307 308 309 310 312 313 315 317 319 321 323 323 324 325 327 326 327 328 328 328 327 326 326 326 323 321 322 322 323 325 325 325 325 326 327 327 326 327 327 328 329 328 328 328 328 328 328 320 327 327 328 328 324 321 323 325 326 325 326
292 293 293 294 294 296 298 299 301 304 307 307 307 307 307 306 306 305 304 303 303 304 304 304 304 304 304 304 306 307 308 310 311 313 315 314 315 316 317 320 324 325 324 324 323 324 324 323 322 324 324 321 320 320 321 323 323 322 323 324 325 326 326 327 328 324 327 326 327 327 328 328 328 328 328 328 328 328 328 324 321 321 322 321 322
291 292 292 293 294 295 297 298 299 302 305 306 306 305 305 305 304 303 302 301 301 301 302 302 302 302 302 302 303 304 305 306 308 310 310 311 311 311 312 313 315 316 315 313 313 314 317 321 321 321 323 322 320 320 320 320 320 320 321 322 324 325 326 327 327 327 327 328 327 326 328 328 328 328 328 328 328 328 328 328 327 328 327 319 320
291 291 292 292 293 294 295 296 298 300 303 303 304 303 302 301 300 301 300 300 299 299 299 299 300 300 300 301 302 302 303 304 305 306 306 307 307 307 308 310 310 312 311 308 308 310 311 313 316 319 319 321 319 316 318 318 319 319 319 322 324 325 326 326 327 327 327 328 328 328 327 328 328 328 328 328 328 328 328 328 325 327 327 324 320
290 290 291 292 292 292 294 294 296 299 300 300 300 300 300 299 298 297 296 297 297 297 296 297 297 298 299 299 300 301 302 302 303 303 303 304 305 305 306 307 307 307 306 306 306 307 308 309 311 316 315 313 306 308 309 313 316 316 319 321 322 325 325 326 326 326 327 327 327 326 327 327 328 328 328 328 328 328 328 328 328 328 327 327 326
289 290 289 290 292 292 293 294 295 297 298 299 298 298 299 298 296 295 295 295 295 294 294 295 295 296 296 297 298 299 299 300 301 302 302 302 302 302 303 304 305 304 304 305 305 306 307 306 307 310 313 309 304 305 305 309 310 307 311 315 318 321 324 324 316 316 323 325 326 326 326 326 325 326 326 326 327 327 327 327 327 327 328 327 327
289 290 290 291 291 292 293 294 294 295 296 298 297 296 296 296 296 295 295 294 295 296 295 294 295 294 295 295 296 296 297 298 299 300 300 301 301 301 301 302 303 303 302 302 302 303 304 304 304 303 308 308 304 303 302 303 303 305 312 313 311 311 316 313 310 313 319 323 324 324 324 323 318 320 323 324 324 325 325 326 326 326 326 327 327
289 290 290 290 291 292 292 293 294 294 295 296 297 297 297 296 296 296 296 295 294 295 295 295 294 293 292 293 295 295 295 295 296 298 298 299 300 299 300 301 301 302 301 300 300 299 299 300 301 300 303 303 301 300 301 301 301 304 304 304 307 306 304 305 303 311 311 316 319 313 315 309 308 312 319 319 319 321 322 323 324 325 325 326 327
288 289 290 290 291 291 292 293 293 294 294 295 295 296 296 295 295 296 295 294 294 293 293 291 292 292 291 291 292 293 294 294 294 294 294 295 297 298 299 299 300 300 300 299 299 299 298 299 299 299 299 299 297 299 300 301 301 303 302 302 302 302 300 300 301 309 308 309 311 309 309 308 307 308 310 310 312 311 312 318 322 324 325 326 326
287 289 290 290 290 291 292 292 292 293 293 294 295 295 294 293 293 292 291 290 289 289 288 288 289 289 289 291 291 292 292 293 294 293 293 294 294 295 296 296 296 297 298 297 295 295 296 296 297 298 298 299 298 295 296 300 299 300 301 302 301 297 295 297 299 297 304 308 307 307 306 305 304 306 309 308 309 309 311 315 316 320 323 324 325
288 289 290 290 290 291 291 292 292 292 293 293 294 294 294 293 292 291 291 289 288 289 290 290 290 290 290 290 290 291 292 291 291 292 292 293 294 294 294 294 295 295 295 294 293 293 294 295 296 295 296 296 296 294 293 295 297 298 299 299 300 300 299 295 292 295 295 301 303 302 302 302 301 304 305 305 307 307 309 311 309 317 319 319 323
289 289 289 290 290 290 290 291 291 292 292 293 293 293 292 292 292 291 291 289 289 289 290 290 290 290 290 290 290 290 291 291 291 291 291 291 292 292 293 293 293 294 294 293 293 293 293 294 294 294 294 294 294 293 292 294 292 293 297 296 297 298 298 297 297 295 295 293 295 298 299 297 299 302 302 303 303 304 306 309 308 312 309 312 318
288 288 289 289 290 290 290 290 290 291 291 292 292 292 293 292 292 291 290 290 290 290 290 290 290 290 290 290 290 290 290 290 291 290 290 290 291 291 291 291 292 292 293 293 293 293 292 292 292 292 292 292 293 293 292 291 291 290 292 293 294 294 295 296 295 295 293 291 290 290 291 294 296 297 297 299 300 302 304 305 304 308 308 310 313
288 289 289 290 290 290 290 289 289 290 291 291 292 292 292 292 291 291 291 290 290 289 290 289 289 289 289 289 289 289 289 290 290 291 290 290 290 290 290 290 290 291 291 292 292 291 291 291 291 292 292 292 292 292 291 292 292 292 291 291 290 290 292 292 292 291 292 293 289 289 290 289 288 291 295 297 298 300 301 300 304 306 305 308 309
289 289 289 289 289 290 289 289 289 290 290 291 291 291 291 291 291 291 291 290 290 290 289 289 289 289 288 288 288 289 289 289 289 290 290 290 290 290 290 290 290 290 290 290 290 289 289 289 290 290 290 290 290 291 290 291 291 291 291 290 289 289 288 288 289 290 290 289 289 289 289 289 288 289 292 294 296 299 299 300 303 300 302 305 305
Wind_Speed
10 13 14 17 16 16 17 17 16 15 14 13 13 13 12 12 12 13 16 15 15 14 13 14 12 12 13 12 12 11 11 11 11 10 10 10 11 11 12 12 12 12 11 10 10 12 13 13 13 14 14 13 13 13 14 14 13 13 13 12 13 11 10 10 9 7 6 10 10 11 9 9 8 9 9 10 10 8 5 3 4 7 7 7 9
15 13 13 16 15 15 17 16 16 15 14 14 13 13 13 11 10 10 11 12 13 15 13 13 11 12 11 12 12 11 11 10 10 10 10 9 10 11 11 12 12 12 12 11 10 10 11 13 12 13 13 13 13 13 13 14 13 13 12 12 12 11 10 9 8 6 11 8 9 10 9 11 10 10 10 9 10 8 4 5 8 5 7 8 8
13 13 12 16 15 14 15 16 16 16 15 14 13 13 12 12 12 11 10 10 10 11 13 12 10 9 12 11 11 11 10 10 10 9 9 10 10 10 12 12 12 13 12 10 9 9 10 11 11 13 13 13 12 12 13 13 13 12 12 12 11 11 11 11 11 11 10 10 9 10 9 10 9 9 9 9 9 8 4 7 5 5 5 8 11
13 12 12 14 12 13 14 15 15 15 16 15 14 13 11 12 13 12 11 11 10 9 10 11 10 7 9 10 10 11 10 10 9 9 9 9 10 10 11 12 12 12 12 11 10 11 11 11 12 12 13 13 12 12 12 12 12 12 11 11 11 11 11 11 11 11 9 8 7 1 5 7 7 8 7 9 8 6 3 5 5 9 9 8 9
13 12 11 14 14 12 12 14 15 14 15 14 14 13 11 11 12 12 12 12 12 11 11 11 12 10 9 10 9 10 9 9 9 9 9 9 9 10 10 9 11 11 12 11 10 10 11 12 12 12 13 13 12 12 12 12 12 11 11 11 11 11 11 11 11 10 9 7 4 4 5 6 5 6 5 6 6 6 4 6 12 11 8 8 7
11 11 11 12 12 13 12 13 15 14 14 13 13 13 12 11 10 11 11 11 11 11 10 9 10 9 9 9 9 9 9 9 9 8 8 8 8 9 9 10 10 10 10 10 11 11 12 12 12 13 13 13 12 11 12 12 11 11 10 10 10 11 11 10 9 8 7 5 4 4 4 4 5 6 6 6 5 6 7 7 6 6 7 6 6
11 8 9 11 10 13 13 12 14 15 14 13 12 12 12 11 10 9 9 10 10 9 10 9 9 8 8 9 9 9 9 9 9 8 8 8 7 6 7 8 9 9 9 10 11 12 12 12 13 13 13 13 12 11 11 12 12 11 10 9 9 9 9 10 8 6 3 5 2 2 4 5 4 4 6 5 4 3 3 6 6 5 5 9 10
8 8 8 9 9 12 11 11 12 13 14 14 13 11 11 10 9 9 9 9 8 9 7 8 8 7 7 8 8 8 9 9 9 9 9 8 7 6 7 8 9 10 10 11 12 12 12 13 13 12 12 13 12 11 11 11 12 11 10 9 9 8 8 7 7 5 4 1 1 2 3 4 3 3 5 9 5 3 5 8 8 8 6 6 7
8 8 8 8 8 10 10 10 10 12 14 14 13 12 11 10 9 7 7 6 7 8 8 6 6 7 7 7 7 7 8 9 9 9 10 9 6 6 8 7 10 11 11 11 10 11 11 12 12 12 12 12 12 11 11 11 11 11 10 9 8 8 7 6 4 4 4 2 2 3 2 3 3 3 3 5 7 7 7 4 6 6 6 5 5
8 7 7 8 8 9 9 9 9 13 12 14 13 13 11 9 8 7 6 5 5 6 6 5 7 7 7 7 7 8 8 8 9 9 9 9 8 8 10 8 10 11 11 11 11 10 10 11 11 10 10 10 10 10 9 10 10 10 9 9 7 7 6 5 3 5 1 2 3 3 3 8 2 1 6 4 5 5 6 9 7 8 6 4 6
7 7 7 7 8 8 8 9 9 11 11 13 12 12 10 10 8 7 6 6 5 4 6 6 7 7 7 7 8 8 8 7 8 9 8 8 9 9 10 11 12 11 11 12 11 10 10 10 9 9 8 8 9 8 8 7 7 7 7 7 7 6 6 5 7 2 1 2 2 2 4 3 0 1 6 3 2 2 3 3 2 1 1 2 4
6 6 7 6 8 6 7 9 8 10 11 11 11 10 8 8 7 8 8 6 6 3 6 5 7 7 7 7 8 8 8 8 8 8 8 8 9 10 9 11 12 11 11 12 12 11 10 9 9 8 8 7 7 6 5 6 4 4 3 4 4 6 6 5 5 2 2 1 2 1 2 3 1 4 2 2 1 1 2 1 2 3 3 1 1
6 6 6 6 8 7 5 3 10 10 9 8 9 6 6 7 6 7 7 8 5 3 5 5 7 5 6 6 6 6 7 7 7 7 8 7 6 11 8 10 11 12 11 11 11 11 10 10 9 8 8 7 7 6 6 5 4 2 2 2 3 4 6 6 4 2 2 1 2 2 2 1 1 4 3 1 2 1 2 2 3 3 2 1 1
6 5 5 6 6 7 6 7 7 3 6 4 5 6 8 7 5 7 5 8 5 6 6 4 5 5 5 6 6 6 7 4 5 8 7 8 9 10 12 11 11 13 13 11 11 11 11 11 10 9 8 8 8 7 7 6 5 4 4 3 2 4 5 7 6 3 2 2 1 1 1 0 1 3 6 2 1 3 3 2 2 3 2 2 2
6 4 4 5 6 7 7 6 7 7 9 5 6 8 8 7 5 5 3 6 7 6 7 4 3 3 5 5 4 5 4 6 7 7 7 8 7 10 10 10 8 12 11 10 10 9 9 9 9 9 8 7 7 7 7 6 6 5 4 3 3 1 5 5 5 3 3 3 3 2 2 2 6 4 5 4 5 3 2 5 5 4 4 4 4
5 4 4 5 4 6 7 7 8 9 9 8 7 7 8 7 6 5 3 2 4 7 6 5 2 4 5 5 5 5 7 5 4 6 7 9 6 8 6 5 7 10 9 8 8 7 6 5 5 5 6 6 5 6 7 7 6 6 5 4 3 2 2 8 4 3 3 4 3 2 2 2 3 4 4 6 5 5 6 4 5 5 6 6 5
5 4 4 5 5 5 5 5 6 10 9 8 6 6 6 6 6 6 4 6 4 3 0 1 3 3 2 2 5 5 6 9 8 7 9 8 3 5 6 6 5 8 8 7 6 6 5 3 3 1 2 5 7 7 7 6 6 6 5 4 4 3 1 7 3 4 3 1 2 3 3 3 2 5 6 6 6 6 6 7 5 6 6 7 6
4 4 6 5 4 4 3 4 5 5 5 7 7 5 6 6 6 6 4 5 6 3 3 5 3 1 3 2 5 3 6 6 7 7 6 8 8 4 5 8 7 9 8 7 6 5 4 3 2 0 1 1 8 8 7 7 6 6 6 5 4 3 2 5 3 3 3 1 4 3 4 1 7 8 9 9 8 8 7 7 8 9 7 8 9
4 6 5 6 6 4 4 3 4 5 5 4 4 5 6 7 6 6 5 5 4 4 5 5 6 1 4 4 5 5 3 6 7 6 7 11 5 5 8 7 9 8 8 7 5 4 4 3 3 1 1 3 9 8 8 7 7 7 5 4 3 2 1 5 5 3 4 5 5 4 5 4 7 8 9 10 11 10 9 9 9 9 10 9 8
2 3 4 4 5 5 5 4 3 5 4 3 3 4 6 7 7 6 5 6 4 6 6 6 4 3 4 3 4 8 7 5 4 6 3 7 7 9 7 6 7 7 7 6 5 4 4 4 3 2 2 6 6 6 7 7 6 5 4 4 2 4 4 4 2 4 4 4 4 5 1 4 6 9 10 10 11 12 11 10 10 10 9 9 10
1 2 2 4 5 5 6 4 4 5 5 4 3 4 5 6 6 7 6 6 5 5 6 5 7 6 5 4 1 6 6 6 6 8 7 7 8 7 7 6 6 5 4 5 4 4 4 4 3 2 2 3 7 6 7 6 5 5 4 2 2 4 2 3 4 5 5 5 5 6 3 5 7 8 10 11 11 12 12 12 12 12 12 12 11
6 2 2 2 3 5 6 5 5 4 5 4 3 3 5 5 7 7 6 6 5 5 5 2 3 5 4 4 3 3 4 7 9 11 10 9 8 8 7 6 6 4 4 5 4 4 4 3 3 3 2 5 8 5 6 6 6 3 3 0 4 3 2 3 3 5 6 7 6 4 2 5 9 10 11 12 13 13 13 13 13 13 13 13 13
11 11 5 4 1 3 4 6 6 6 6 5 4 4 5 5 6 5 4 3 3 2 1 1 3 3 4 4 3 4 4 5 4 4 5 7 8 9 8 7 6 6 5 6 5 4 4 4 3 3 3 7 5 5 3 3 3 5 3 3 2 2 2 2 4 5 6 7 8 1 4 7 10 12 13 14 14 15 15 14 15 14 14 15 15
10 8 8 8 11 10 5 5 6 7 6 6 3 4 5 5 4 5 4 4 4 2 2 1 0 4 3 3 4 4 3 4 3 3 2 6 5 6 6 6 5 5 5 5 5 5 4 4 4 2 4 5 3 3 3 4 3 3 2 2 3 3 3 4 5 6 6 6 6 3 6 9 11 12 13 14 15 15 16 16 16 16 16 16 16
8 8 9 11 13 11 12 7 5 6 7 6 4 3 3 3 4 4 4 4 4 4 3 2 3 3 2 2 4 3 4 3 2 3 6 6 6 7 6 5 6 6 6 4 4 3 5 4 3 5 4 4 4 4 4 4 5 4 4 4 4 4 4 5 6 7 7 7 7 4 7 9 11 13 14 15 15 16 16 16 17 18 19 19 18
8 9 11 11 12 11 11 9 9 4 6 5 5 3 3 4 4 4 5 5 4 4 4 4 4 5 4 4 3 4 5 5 6 6 7 6 6 6 6 5 5 5 5 4 3 3 3 3 3 4 4 4 5 5 5 5 5 6 6 6 6 6 7 7 7 7 8 8 8 6 7 10 11 13 14 15 16 17 17 16 17 17 18 19 20
9 9 9 10 10 12 11 11 8 8 6 6 4 4 5 4 4 4 5 5 5 5 5 4 4 3 4 4 5 4 5 6 6 7 8 7 6 6 6 6 4 4 4 4 4 3 3 3 4 5 5 5 6 7 7 6 6 6 4 5 5 5 5 7 8 8 7 8 9 6 7 9 11 13 14 15 16 17 18 18 18 18 18 18 19
9 11 11 11 11 13 11 10 10 9 6 6 6 6 7 6 6 4 5 5 5 5 5 5 3 4 5 5 4 4 4 5 7 8 8 8 8 4 3 3 4 3 3 4 3 3 4 4 4 5 5 6 6 6 7 7 6 7 6 6 6 7 8 8 8 8 8 9 9 10 7 9 11 12 13 14 15 17 18 19 19 20 20 20 19
11 13 11 10 12 12 12 11 10 9 7 6 5 7 7 7 5 5 5 5 5 5 5 4 4 4 4 5 5 5 4 4 5 4 6 10 8 5 2 2 1 4 5 4 4 5 5 5 4 4 4 4 5 5 5 6 6 7 7 7 8 8 8 8 8 8 8 9 9 10 7 8 10 12 13 14 15 17 18 19 20 20 20 20 21
12 12 11 11 12 13 13 13 12 9 8 7 5 6 6 6 7 6 6 5 5 5 4 4 4 4 4 4 5 5 6 5 5 5 3 4 2 1 3 5 6 6 6 4 4 4 6 5 5 5 5 5 6 6 6 5 5 6 7 7 7 8 9 9 8 8 8 9 10 10 9 10 10 12 13 14 15 16 17 18 19 20 21 22 22
11 12 11 11 11 13 13 12 11 11 9 7 6 4 6 7 6 6 6 6 5 5 4 4 4 4 4 5 6 5 5 5 5 4 5 5 5 5 6 6 6 6 5 5 3 5 6 6 5 5 5 6 6 7 7 7 7 7 7 8 8 8 8 9 9 9 9 9 9 9 10 10 11 11 13 14 15 16 17 17 20 21 22 23 23
12 13 11 11 12 13 12 12 11 9 8 9 7 6 4 7 5 5 5 6 6 5 4 4 4 4 5 5 5 5 5 6 5 5 5 4 5 5 4 4 5 5 4 3 4 5 6 6 6 5 6 6 7 7 7 8 8 8 8 9 8 8 9 9 9 9 10 10 10 10 10 10 10 12 13 14 16 16 17 17 18 20 22 23 24
9 11 11 13 15 14 12 12 12 11 10 9 8 8 9 9 10 10 9 9 7 7 7 7 7 7 7 8 7 5 3 3 3 4 3 4 6 5 3 3 3 2 0 0 3 5 5 6 7 5 6 6 8 8 8 8 9 9 9 9 9 9 9 9 9 9 10 10 10 10 10 10 11 10 13 14 14 16 17 18 18 20 21 22 23
9 9 10 15 13 9 8 9 9 11 11 10 10 10 9 8 8 8 9 10 9 8 8 7 7 6 6 8 7 8 7 5 4 4 4 3 4 4 2 3 2 3 3 2 3 5 6 7 7 8 7 8 9 9 8 8 8 8 9 8 8 9 9 9 9 9 9 9 9 9 10 10 9 10 9 11 15 15 16 18 19 20 21 22 23
10 11 13 12 13 12 10 8 10 11 11 12 13 12 9 8 7 9 9 9 8 7 7 7 7 7 7 7 8 7 7 8 7 5 3 2 2 3 3 2 2 3 4 4 3 5 6 7 7 8 8 8 9 9 10 10 10 10 10 9 9 9 9 9 9 9 9 9 9 8 8 9 9 9 9 9 9 14 15 17 19 19 20 21 22
14 13 12 11 12 13 12 10 11 13 12 12 12 13 12 10 8 9 7 10 8 8 7 7 7 8 8 7 9 9 9 9 8 6 3 3 3 3 3 3 3 5 5 4 4 5 5 6 6 6 7 8 8 9 8 10 10 11 10 10 10 9 7 8 9 9 9 8 8 8 8 8 9 8 8 9 9 10 11 12 15 18 19 20 21
13 14 13 11 10 12 12 12 12 13 12 13 13 13 12 12 10 9 10 9 8 8 7 7 9 10 9 9 9 9 10 10 10 9 7 7 6 6 5 4 3 4 4 5 5 4 5 5 5 5 5 6 6 8 8 8 9 9 9 10 10 10 10 8 8 8 7 8 9 8 9 9 9 10 9 9 9 8 9 11 12 15 18 19 19
12 13 12 10 8 8 9 11 11 11 11 10 12 11 10 10 10 9 11 10 10 8 7 6 8 7 10 9 10 10 10 12 12 11 8 8 7 6 7 9 6 4 4 5 6 5 5 5 5 5 4 5 6 6 7 7 7 7 8 10 10 10 10 9 8 8 8 9 8 8 8 8 8 8 8 8 8 8 8 9 11 14 16 17 17
11 12 11 10 9 10 9 11 11 11 10 10 11 11 11 9 9 11 12 12 10 10 9 8 8 9 10 10 10 10 10 12 11 11 9 7 7 8 7 10 8 7 8 8 7 7 7 5 5 5 4 4 5 6 7 7 7 7 8 10 9 10 9 9 8 8 8 8 8 8 7 8 8 8 7 7 7 8 8 8 8 8 8 11 14
11 11 13 13 13 11 10 10 11 11 9 9 8 8 9 9 9 8 10 10 10 9 11 10 10 11 11 10 10 9 10 12 11 9 8 7 8 9 10 9 8 6 7 9 8 8 9 8 7 6 5 3 7 7 7 6 7 8 9 9 9 9 10 9 9 9 7 7 7 6 7 6 6 6 7 6 7 7 7 7 7 7 8 9 10
11 12 12 12 12 11 11 12 11 11 9 9 9 8 8 8 8 10 10 9 8 8 9 9 9 9 10 11 12 10 9 11 13 11 9 9 8 9 12 10 8 8 8 8 7 8 9 8 6 7 8 9 9 9 9 7 4 6 5 7 7 7 8 8 8 8 8 7 8 8 8 7 7 7 6 6 6 7 7 8 7 7 8 7 8
11 12 12 12 12 12 12 11 10 11 11 11 9 9 8 8 8 8 8 8 8 8 9 8 8 8 10 11 11 11 12 12 11 13 12 11 10 11 12 9 8 8 8 7 9 9 10 10 8 7 8 8 6 9 10 7 3 4 5 5 3 4 3 5 11 11 9 8 8 8 9 9 11 11 11 10 10 10 9 8 9 8 8 8 8
10 12 11 12 12 12 12 11 11 10 11 10 9 10 9 9 8 7 7 8 8 8 9 9 9 10 11 12 13 14 13 12 11 10 10 11 11 11 10 10 10 8 8 9 10 11 9 10 10 8 5 7 7 10 12 11 5 7 4 3 4 5 3 7 11 10 9 8 7 8 9 10 14 12 10 9 9 10 11 10 11 11 10 9 9
10 11 12 12 10 11 12 12 11 11 10 10 9 8 8 8 8 8 7 7 7 7 9 9 11 12 13 12 11 11 11 11 11 10 10 9 11 12 11 10 10 10 9 9 10 11 11 11 10 11 8 5 7 8 11 12 10 8 3 3 3 3 3 6 10 7 8 8 9 10 9 9 10 10 8 9 10 10 10 10 11 12 12 11 9
11 11 11 10 8 11 11 11 10 11 10 10 9 7 5 5 4 5 5 6 7 8 8 10 11 11 11 12 12 11 11 11 11 11 10 10 10 10 9 9 10 9 9 9 10 9 10 10 10 10 10 6 7 5 8 11 13 11 6 4 3 3 4 7 10 5 6 5 7 8 7 9 10 10 8 9 9 10 11 11 11 11 12 13 13
10 10 9 10 10 10 11 10 9 10 11 11 10 8 8 8 6 6 7 7 9 9 10 10 9 10 11 9 11 11 11 11 11 12 11 10 11 11 10 10 10 9 9 9 9 9 11 11 10 8 10 9 5 6 7 7 10 11 11 9 6 4 5 8 6 6 8 3 5 5 7 9 10 10 7 9 10 10 10 10 12 12 12 12 12
9 8 8 9 10 9 10 10 9 9 10 11 11 8 9 9 10 10 9 9 9 9 8 8 8 8 8 9 10 11 11 11 11 11 11 11 11 10 11 10 10 9 9 10 11 11 10 10 8 9 8 7 6 8 8 6 4 9 8 7 7 5 5 6 5 7 9 2 2 8 8 10 12 9 9 9 10 11 10 9 12 11 11 11 11
7 7 8 8 9 10 9 10 8 9 9 9 10 9 8 8 9 10 9 10 10 9 8 8 8 8 9 9 9 9 11 11 11 11 11 11 11 11 11 10 10 10 9 10 10 9 9 9 10 10 9 8 9 8 7 7 8 6 6 6 5 4 4 6 5 5 6 10 10 4 1 10 10 7 9 10 11 11 12 10 11 10 10 11 10
7 7 7 7 7 8 9 9 9 9 9 10 9 10 9 9 8 8 9 8 8 8 7 7 8 8 9 8 9 9 10 11 11 11 12 11 11 10 10 10 10 10 9 9 9 10 11 10 10 10 9 9 9 8 8 9 8 7 6 7 5 4 3 4 7 6 6 9 10 13 14 10 3 2 11 10 11 11 11 10 11 9 9 9 9
6 6 6 6 7 7 9 9 10 8 8 9 9 10 9 8 9 9 9 8 7 7 7 7 7 7 9 9 9 8 8 8 10 11 11 11 11 10 10 10 10 9 9 9 9 9 9 9 9 9 9 9 8 9 9 7 7 7 7 6 7 6 4 5 8 9 6 3 8 12 12 15 15 11 8 8 11 11 10 11 10 9 10 9 8
5 6 6 6 6 6 7 9 9 7 8 8 9 9 9 8 8 8 9 9 8 7 7 8 7 8 8 8 8 7 7 8 8 9 10 10 10 10 10 10 9 9 9 9 9 9 8 8 8 9 10 10 8 8 8 8 6 7 8 7 8 8 7 8 8 8 7 8 10 10 11 9 11 14 9 12 10 8 8 10 7 10 11 10 9
Wind_Direction
172 164 162 152 158 157 155 151 148 147 144 141 138 140 139 138 135 139 137 148 149 138 148 146 138 134 133 137 133 133 130 132 131 130 130 130 128 126 126 122 121 121 116 116 118 126 130 123 120 116 115 115 115 111 108 106 99 93 83 72 71 75 96 90 90 70 47 71 75 79 85 96 95 90 92 88 82 78 49 46 332 84 76 68 48
166 164 163 157 155 156 153 149 146 145 145 144 141 141 143 135 131 126 124 117 126 137 135 137 140 132 134 137 133 132 132 131 129 131 134 133 129 126 125 124 121 116 114 119 126 131 125 117 120 118 115 114 111 110 106 103 100 99 87 76 75 78 86 101 104 71 56 71 94 95 93 84 77 81 84 91 85 76 51 12 344 55 72 65 49
163 164 164 160 153 153 152 148 147 145 144 144 142 141 141 136 132 130 126 121 119 124 130 133 126 133 140 134 133 132 132 132 131 131 135 136 135 131 126 124 123 120 120 116 120 117 114 118 120 113 110 110 108 107 104 101 104 99 91 80 79 80 80 72 66 59 53 50 63 90 95 97 94 94 88 86 88 80 58 36 17 72 77 77 73
165 167 166 154 154 153 151 149 148 147 146 145 142 141 135 132 131 133 136 131 131 133 135 134 128 147 136 131 133 132 134 134 133 134 135 138 138 136 134 129 125 123 126 129 134 126 124 121 115 112 110 109 109 106 105 104 102 99 95 88 83 81 79 74 67 59 53 43 32 115 110 99 96 85 98 73 69 49 3 99 85 74 75 79 84
169 168 164 162 162 158 153 149 149 149 148 144 140 137 134 133 135 136 139 142 141 143 148 150 148 154 137 135 135 132 134 136 132 133 139 144 142 140 135 131 127 126 124 123 121 122 120 116 113 111 110 109 109 108 108 108 102 101 99 91 86 84 79 75 69 66 61 50 8 257 98 91 86 64 56 76 62 349 25 32 66 65 71 75 68
165 169 164 163 169 160 157 151 151 150 148 144 142 139 136 133 134 139 144 143 146 146 148 150 147 142 139 139 137 133 133 134 136 137 140 144 150 148 144 142 129 126 122 120 120 117 113 111 114 112 113 112 112 114 112 109 105 104 104 97 90 85 81 78 75 69 60 59 247 100 101 102 107 104 80 87 64 47 56 49 51 76 77 84 95
158 171 163 165 167 160 157 155 153 153 148 144 142 140 138 136 134 134 140 149 147 146 149 150 142 135 145 144 141 138 135 137 138 139 140 141 144 147 144 126 123 120 118 119 118 119 116 117 114 115 117 117 120 119 116 113 112 109 107 102 93 86 83 79 76 62 20 197 72 77 86 75 78 95 119 102 99 92 74 70 69 67 62 32 8
159 170 171 167 178 144 153 154 156 157 148 144 141 139 137 136 136 135 140 149 167 147 158 154 145 146 152 151 146 146 142 140 139 139 140 140 141 136 112 113 119 118 123 120 118 117 120 118 117 120 121 122 123 121 120 117 116 116 112 110 99 91 86 87 82 69 305 81 53 50 76 96 95 87 93 71 56 121 79 75 69 75 69 46 1
167 171 170 168 156 122 142 150 159 158 154 143 140 136 134 133 133 137 140 152 164 164 154 165 146 157 162 159 153 154 150 145 144 144 145 141 128 137 131 130 128 130 126 121 117 119 124 124 125 124 123 124 124 123 122 119 118 120 120 119 117 107 103 95 99 160 199 84 141 109 114 108 100 88 83 64 72 53 57 67 113 96 75 30 2
171 168 170 170 164 110 138 149 169 157 160 147 143 141 141 136 136 139 150 165 180 161 164 152 155 166 172 168 164 164 159 153 152 148 141 137 128 143 142 141 135 129 123 119 120 123 124 123 122 120 119 118 119 119 117 117 120 121 125 124 127 128 118 119 138 249 73 129 92 129 59 341 100 327 66 47 44 51 56 53 39 29 30 25 12
163 171 172 169 133 106 128 145 153 166 159 153 150 150 146 143 149 147 157 178 194 174 161 154 164 174 181 176 169 170 163 161 154 145 149 147 144 141 147 144 134 125 120 117 119 118 115 115 114 114 114 116 119 122 119 116 119 122 128 130 131 141 140 142 219 144 121 103 119 106 113 284 252 15 66 20 34 48 65 73 65 100 308 18 345
170 168 168 152 102 94 133 151 154 168 161 161 155 160 151 147 148 156 168 163 212 183 160 175 177 180 191 184 177 175 167 163 160 153 146 154 150 148 151 140 134 126 121 117 113 110 107 106 105 110 114 115 115 120 126 127 126 128 135 147 154 160 166 173 234 102 143 162 102 50 118 221 17 90 7 21 6 172 247 239 193 214 233 303 327
164 167 168 160 150 95 102 105 148 168 164 163 159 159 128 129 149 172 170 149 195 203 198 160 183 192 192 191 184 188 171 175 162 157 145 138 163 140 148 136 135 134 123 119 117 116 117 117 119 121 122 120 121 121 115 114 102 91 90 121 162 177 183 189 224 184 169 180 133 206 134 159 217 64 291 308 60 285 270 241 236 202 209 220 210
156 167 172 166 139 96 98 107 90 94 126 146 139 129 128 131 145 171 162 151 167 205 213 166 181 203 195 191 185 193 180 163 176 151 141 146 149 140 148 140 148 138 139 140 134 136 138 138 137 136 136 134 135 134 123 113 101 77 71 83 142 185 192 200 248 214 181 194 187 198 261 253 160 36 316 259 345 297 288 288 269 270 255 233 274
148 162 163 160 158 139 89 80 82 86 113 129 114 114 127 116 114 141 133 159 173 204 216 200 149 234 226 198 191 175 155 172 192 145 134 122 149 139 138 155 151 131 129 130 133 135 136 138 137 143 139 143 149 147 130 116 100 83 79 84 90 116 200 215 211 208 199 206 203 204 237 275 65 298 321 306 313 282 251 249 228 223 259 249 285
145 146 147 159 163 155 160 94 81 80 71 71 91 118 126 121 111 131 149 158 169 191 212 251 198 228 238 196 179 173 170 165 138 132 140 127 160 141 129 122 140 121 121 122 121 118 126 132 144 154 161 146 151 140 130 118 104 91 89 95 89 63 260 302 206 213 211 207 220 236 260 281 42 299 295 287 284 292 293 289 288 276 270 263 260
127 125 146 154 166 167 160 155 93 94 80 71 76 102 102 119 125 131 125 128 125 256 181 303 94 325 307 298 152 177 170 158 161 143 136 145 134 138 119 132 133 127 115 112 110 114 114 123 128 177 247 158 143 134 128 112 96 90 87 78 74 75 71 297 231 217 244 205 284 257 267 279 17 301 284 285 287 298 288 284 266 252 267 277 268
108 132 130 158 158 158 154 167 154 159 139 112 88 92 113 114 120 105 94 143 157 201 74 87 83 107 295 180 102 156 168 152 135 130 137 124 159 134 155 157 168 140 133 131 129 125 115 108 122 97 262 236 124 128 119 116 94 79 71 65 67 76 89 291 246 235 239 183 232 243 261 353 325 303 299 307 306 295 290 281 288 294 276 268 277
138 128 134 130 130 128 130 127 154 180 181 192 171 108 116 124 118 104 100 93 88 96 105 104 93 103 272 149 105 115 356 117 142 147 152 143 193 177 187 175 171 145 146 142 141 136 140 141 135 171 212 123 132 138 134 130 126 115 94 80 52 74 171 236 237 250 242 236 240 244 256 6 297 292 288 296 300 298 289 282 274 280 279 273 279
120 132 139 144 141 142 145 143 167 180 190 192 181 165 104 110 116 105 103 101 101 103 111 116 90 103 53 51 116 136 157 118 93 139 200 145 159 213 180 173 150 150 146 151 153 162 163 155 153 166 199 131 139 139 131 130 125 118 118 118 123 234 223 241 239 241 250 261 281 262 21 318 297 280 281 289 292 294 289 285 279 268 273 281 280
98 134 159 171 173 170 160 152 151 164 183 188 189 191 117 125 129 120 127 130 131 112 118 131 126 177 185 115 204 191 165 148 175 173 164 180 150 141 137 126 138 148 150 150 170 178 169 165 163 167 185 151 141 132 123 131 127 131 125 124 208 235 261 266 255 257 258 262 248 261 51 296 291 284 281 283 286 290 291 289 287 285 286 281 283
9 324 109 160 186 185 175 161 147 162 180 192 193 187 163 187 197 177 185 157 152 154 160 206 193 197 181 167 135 327 192 173 185 176 174 158 154 142 140 148 147 146 161 156 166 175 183 176 182 179 188 117 144 193 144 121 118 109 98 222 248 267 244 259 267 268 267 262 262 276 75 283 278 276 275 276 278 282 283 281 280 284 286 282 282
8 359 349 11 318 205 207 190 174 165 179 202 195 205 204 206 205 202 178 187 162 198 172 202 243 218 200 192 176 175 235 222 186 179 175 162 149 163 156 152 154 155 164 166 167 173 185 200 192 205 132 146 204 249 230 192 159 137 176 224 255 270 301 279 268 269 268 271 273 284 258 273 272 270 271 273 274 276 279 281 280 279 278 278 281
360 3 355 5 7 345 267 215 201 183 182 196 202 212 215 218 221 212 205 196 184 192 203 199 227 297 199 219 188 188 1 272 49 50 62 175 155 168 158 152 155 161 159 178 172 184 194 195 191 173 182 217 251 264 263 242 241 219 207 237 262 270 259 271 276 276 273 274 272 289 275 270 272 273 272 273 273 274 275 276 277 278 276 274 274
352 345 2 8 1 354 352 316 227 208 207 197 191 200 205 220 222 221 209 205 198 199 187 197 209 212 185 194 212 210 214 251 245 209 212 202 187 189 183 196 197 192 168 222 215 196 210 254 237 222 266 266 261 267 276 277 264 251 244 243 246 236 248 266 276 277 277 274 272 216 255 265 272 276 275 274 274 275 275 275 275 274 274 275 275
359 9 1 356 358 357 352 341 337 270 208 220 191 179 194 204 213 213 208 212 207 213 206 190 218 215 207 196 201 190 206 218 212 223 223 214 208 197 192 201 198 203 188 226 232 257 275 288 289 280 275 273 279 286 279 284 291 290 298 302 290 281 279 285 284 281 282 279 277 204 238 260 268 275 276 276 276 277 277 277 278 277 275 273 274
2 4 353 347 350 354 348 347 346 352 322 221 207 189 199 209 211 204 219 213 215 217 214 207 221 220 220 206 204 198 207 219 217 226 232 224 222 212 200 203 200 214 201 234 277 287 294 292 282 280 282 292 282 279 284 285 284 278 271 274 276 265 271 281 282 278 280 284 285 264 247 259 267 272 276 276 277 280 281 281 280 280 280 279 277
360 2 358 350 348 348 344 340 351 345 335 315 217 205 203 194 204 197 211 231 237 226 231 226 232 248 249 262 251 232 227 221 225 225 224 227 220 197 173 181 192 227 219 255 280 294 298 292 282 278 271 273 290 303 299 291 283 274 275 277 276 279 276 279 285 282 281 284 287 280 239 257 266 269 270 272 273 278 280 280 278 278 276 276 273
7 2 348 348 346 343 343 347 348 342 334 320 248 218 214 207 184 197 211 212 236 239 248 257 247 248 265 272 276 266 256 249 240 232 255 232 217 189 134 86 301 228 222 246 288 291 290 288 272 263 271 283 286 284 288 284 279 284 285 278 280 281 280 280 279 279 280 282 285 286 262 254 260 266 271 272 275 279 281 281 280 279 277 276 277
3 356 353 351 343 341 342 347 345 341 332 327 284 224 223 212 205 201 201 195 221 236 257 257 261 271 277 278 290 293 289 273 262 236 235 313 357 121 181 191 204 218 215 254 281 285 293 288 278 275 271 267 272 274 279 288 285 286 288 284 279 283 286 287 287 280 279 284 286 287 260 246 248 258 263 267 270 273 276 277 280 280 279 279 278
357 359 358 349 343 343 341 335 337 346 346 346 345 287 208 222 217 214 204 199 198 219 241 264 282 297 303 303 297 285 283 282 272 249 245 221 214 210 208 202 206 220 223 268 274 276 289 282 278 281 276 276 278 289 289 293 290 286 282 281 285 286 287 288 285 281 280 280 280 282 284 240 241 244 254 261 264 268 270 272 276 279 279 279 278
1 0 357 345 346 346 339 337 339 340 1 24 9 349 251 209 206 222 217 199 188 194 219 250 262 274 282 290 294 297 284 273 272 272 264 251 239 234 223 202 207 208 211 228 271 277 280 278 266 262 266 268 273 273 272 277 280 280 283 282 281 283 284 286 285 285 285 285 285 286 286 285 238 232 242 247 258 262 265 267 268 272 276 278 278
352 352 354 2 357 347 342 336 352 14 15 23 33 27 22 27 41 43 39 41 35 41 48 40 34 31 23 13 357 333 294 265 234 233 242 257 262 256 249 249 249 259 315 240 258 277 273 270 266 251 257 262 271 272 272 272 276 276 279 279 283 282 281 282 284 284 283 283 285 286 287 284 285 251 229 239 244 250 257 259 263 266 270 273 275
347 347 357 13 357 345 339 332 347 15 27 35 39 44 36 38 41 40 40 46 49 51 44 37 38 35 35 27 17 13 357 332 287 247 230 228 240 266 281 279 341 318 256 246 245 273 279 281 279 274 270 271 276 280 281 274 276 279 280 275 276 278 283 284 282 282 281 279 276 282 285 288 284 285 278 233 233 242 246 254 259 261 264 267 270
357 1 4 14 352 347 343 343 359 31 36 42 46 46 41 48 43 46 40 38 41 46 41 36 38 36 34 36 27 21 17 18 9 348 330 345 309 254 243 231 248 268 268 253 251 273 279 282 285 285 289 289 290 293 291 285 284 281 281 284 285 286 284 285 282 270 264 267 267 268 267 269 270 273 269 276 255 234 235 246 255 260 264 268 270
6 3 5 8 3 349 344 352 5 35 42 47 54 55 49 43 43 48 53 47 40 42 35 31 31 42 42 40 32 32 33 31 24 5 21 22 6 334 326 346 319 285 279 280 278 280 284 286 288 289 289 291 298 296 297 295 292 292 293 292 290 285 274 276 276 269 270 269 269 267 266 268 269 270 277 280 282 281 259 246 249 258 263 267 270
7 4 6 8 12 345 350 357 10 32 42 48 55 59 56 52 45 45 50 54 49 41 39 37 40 42 38 38 31 33 40 41 40 40 38 37 33 29 17 2 343 319 320 321 311 309 302 296 290 289 279 283 285 286 288 290 295 297 298 294 294 291 282 274 273 273 271 267 267 269 268 267 267 264 268 269 277 280 268 250 252 253 257 260 263
8 7 7 2 10 357 353 2 7 34 44 45 47 52 51 52 50 47 51 51 49 42 32 36 39 33 37 35 28 34 37 42 44 40 45 47 45 40 31 23 17 13 8 7 4 356 331 305 298 291 273 274 281 288 296 302 306 300 292 288 289 289 289 280 273 269 266 270 270 270 270 274 273 271 271 272 275 277 282 274 251 249 251 255 256
7 8 7 2 13 14 8 10 15 23 45 44 49 51 51 54 56 54 53 51 50 46 36 37 36 39 38 34 32 34 37 42 43 42 38 33 38 34 35 29 25 39 47 43 31 22 14 351 313 315 308 295 294 300 305 308 298 287 282 282 278 275 270 270 273 268 270 270 274 273 272 270 273 271 271 273 275 277 278 282 292 294 274 244 242
13 9 9 12 16 17 15 18 21 22 28 34 37 49 52 48 46 40 52 44 40 40 45 46 42 42 36 37 35 28 31 42 36 38 37 36 43 40 40 33 33 34 45 42 28 24 17 6 5 346 332 346 26 355 349 320 290 285 282 282 276 273 268 270 272 273 277 281 281 277 276 277 276 275 271 272 274 279 281 283 283 282 283 282 257
14 12 14 12 15 19 19 25 23 26 32 34 37 37 42 54 53 53 59 55 50 50 51 44 44 40 36 39 44 38 26 37 42 44 41 42 42 43 47 42 37 41 48 46 28 27 27 24 355 16 3 47 20 4 351 317 304 305 287 284 291 288 280 267 285 317 319 316 317 313 314 306 297 297 298 290 284 281 285 286 283 280 282 286 281
15 16 20 19 17 19 26 26 25 31 37 41 45 49 48 53 61 57 59 56 54 49 49 47 46 44 43 40 38 36 37 37 31 40 46 45 52 54 51 40 45 46 50 49 43 39 32 35 18 33 32 51 33 359 4 349 30 327 309 327 311 316 333 24 20 347 327 320 323 326 328 332 335 333 331 326 319 313 303 302 303 293 287 285 284
16 20 18 22 22 23 25 29 31 34 36 40 46 51 52 52 61 66 66 72 64 62 63 60 54 50 48 48 45 44 39 41 32 30 39 43 47 54 52 51 48 48 46 45 38 38 26 31 32 25 21 49 42 19 15 21 347 316 278 300 16 348 46 23 352 335 0 358 355 358 2 6 0 350 340 333 331 331 331 324 316 310 298 289 289
18 19 19 21 23 25 26 29 32 36 38 37 47 58 62 64 63 64 61 62 67 68 65 56 50 45 43 41 43 42 42 45 42 40 44 37 45 54 54 50 47 44 47 51 44 44 37 36 36 32 12 39 25 27 20 14 18 353 32 10 355 1 337 8 343 316 11 2 21 27 24 11 360 350 345 352 348 340 331 327 322 319 315 305 290
19 16 19 22 21 25 27 29 33 36 39 38 43 45 52 63 61 67 72 69 61 55 53 48 46 48 48 40 38 39 41 43 44 45 45 41 41 43 43 45 46 43 45 48 44 43 40 42 38 40 30 26 31 18 26 18 19 19 21 4 5 20 28 322 325 267 8 341 3 18 12 5 357 346 352 351 352 348 339 335 337 330 324 318 309
18 13 15 23 25 27 28 31 36 35 35 33 37 44 48 47 45 47 51 49 50 40 39 39 41 45 48 46 42 39 42 44 45 45 44 45 45 47 49 48 44 41 45 52 52 48 40 39 35 38 39 26 46 37 38 32 29 23 27 38 33 23 338 326 341 320 316 276 342 7 1 3 349 338 345 345 345 343 336 338 343 341 343 335 326
19 12 15 23 29 30 32 33 35 35 31 33 32 42 50 53 54 58 59 59 64 56 53 51 55 54 53 49 48 42 40 44 43 41 42 44 45 46 47 48 46 45 46 52 52 51 47 42 38 41 41 32 30 53 42 23 33 37 31 31 44 51 30 7 2 312 330 339 1 355 353 353 345 334 343 341 339 337 330 339 339 334 347 347 340
11 14 19 19 26 29 34 37 41 39 36 35 39 39 50 52 58 59 60 62 61 62 54 56 56 56 56 53 52 48 44 43 45 41 39 42 45 46 47 48 49 48 49 52 51 48 50 49 45 43 44 42 38 45 40 31 41 28 22 32 36 41 36 39 14 347 311 317 316 329 328 346 337 338 344 334 337 333 326 333 331 337 350 344 347
14 16 15 14 20 29 36 42 45 43 37 38 44 45 49 53 57 61 65 61 62 61 61 58 57 53 57 54 53 50 50 46 43 44 41 41 43 46 45 48 49 48 48 51 51 49 47 46 43 42 43 43 41 37 39 36 34 28 17 24 22 21 30 43 20 5 358 334 323 337 329 331 302 9 343 334 331 329 325 330 321 337 340 340 355
13 16 19 18 20 29 37 41 43 43 39 42 46 49 50 53 60 61 67 66 66 66 60 55 53 51 55 52 50 49 45 45 45 42 43 40 42 41 43 46 48 48 47 49 50 49 46 46 45 45 42 47 45 43 40 34 35 31 29 18 25 18 30 12 13 6 355 3 324 323 330 333 334 326 324 327 329 327 328 327 321 343 335 335 351
18 21 20 19 20 29 38 45 41 42 38 41 44 51 53 54 61 64 69 71 66 69 69 61 56 55 57 51 52 50 46 47 46 45 41 41 43 42 44 44 45 44 44 46 47 46 45 46 46 48 46 44 43 41 41 33 27 28 25 25 26 27 23 10 3 1 356 343 333 327 323 325 311 308 323 322 317 306 309 317 334 339 334 330 342